This is the latest recevied weather packets stored in our database for station/object K0QED. If no packets are shown the sender has not sent any weather packets the latest 10 day(s).
| Time | Temp. | Humidity | Pressure | Rain* | Wind** | Luminosity | Snow |
|---|---|---|---|---|---|---|---|
| 1777314053 | 10.56° C | 56% | 1014.1 hPa | 0 mm | - | 718 W/m² | - |
| 1777313750 | 10° C | 55% | 1014.1 hPa | 0 mm | - | 718 W/m² | - |
| 1777313447 | 10° C | 58% | 1014.1 hPa | 0 mm | - | 690 W/m² | - |
| 1777313144 | 9.44° C | 58% | 1014.1 hPa | 0 mm | - | 709 W/m² | - |
| 1777312840 | 8.33° C | 60% | 1014.2 hPa | 0 mm | - | 718 W/m² | - |
| 1777312537 | 8.33° C | 63% | 1014.4 hPa | 0 mm | - | 200 W/m² | - |
| 1777312234 | 8.89° C | 61% | 1014.2 hPa | 0 mm | - | 365 W/m² | - |
| 1777311925 | 8.89° C | 60% | 1014.4 hPa | 0 mm | - | 736 W/m² | - |
| 1777311622 | 7.78° C | 63% | 1014.4 hPa | 0 mm | - | 525 W/m² | - |
| 1777311320 | 8.33° C | 63% | 1014.2 hPa | 0 mm | - | 720 W/m² | - |
| 1777311017 | 8.89° C | 63% | 1014.2 hPa | 0 mm | - | 692 W/m² | - |
| 1777310715 | 8.33° C | 66% | 1013.7 hPa | 0 mm | - | 672 W/m² | - |
| 1777310412 | 7.78° C | 64% | 1014 hPa | 0 mm | - | 676 W/m² | - |
| 1777310109 | 7.22° C | 66% | 1013.7 hPa | 0 mm | - | 619 W/m² | - |
| 1777309807 | 8.33° C | 65% | 1013.9 hPa | 0 mm | - | 621 W/m² | - |
| 1777309505 | 7.78° C | 66% | 1013.9 hPa | 0 mm | - | 653 W/m² | - |
| 1777309201 | 7.78° C | 65% | 1014 hPa | 0 mm | - | 652 W/m² | - |
| 1777308900 | 7.22° C | 66% | 1013.7 hPa | 0 mm | - | 644 W/m² | - |
| 1777308594 | 7.22° C | 64% | 1013.9 hPa | 0 mm | - | 642 W/m² | - |
| 1777308290 | 7.22° C | 67% | 1013.7 hPa | 0 mm | - | 691 W/m² | - |
| 1777307985 | 7.22° C | 66% | 1013.9 hPa | 0 mm | - | 718 W/m² | - |
| 1777307684 | 6.67° C | 67% | 1013.6 hPa | 0 mm | - | 743 W/m² | - |
| 1777307380 | 6.67° C | 68% | 1013.6 hPa | 0 mm | - | 762 W/m² | - |
| 1777307078 | 6.11° C | 71% | 1013.6 hPa | 0 mm | - | 731 W/m² | - |
| 1777306775 | 6.67° C | 69% | 1013.7 hPa | 0 mm | - | 713 W/m² | - |
* Rain latest hour (hover to see other rain measurements)
** Current wind speed in m/s (hover to see current wind gust speed)